Regional Weather Roundup
Issued by NWS

Home | Current Version | Previous Version | Graphics & Text | Print | Product List | Glossary On
Versions: 1 2 3 4 5 6 7 8 9 10 11 12 13 14 15 16 17 18 19 20 21 22 23 24 25 26 27 28 29 30 31 32 33 34 35 36 37 38 39 40 41 42 43 44 45 46 47 48 49 50
270
ASUS43 KMPX 241401
RWRMN
WEATHER ROUNDUP FOR MINNESOTA
NATIONAL WEATHER SERVICE TWIN CITIES/CHANHASSEN MN
900 AM CDT WED MAY 24 2017


NOTE: "FAIR" INDICATES FEW OR NO CLOUDS BELOW 12,000 FEET WITH NO
SIGNIFICANT WEATHER AND/OR OBSTRUCTIONS TO VISIBILITY. N/A MEANS
CURRENT SKY AND/OR WEATHER CONDITIONS ARE NOT AVAILABLE.

MNZ060>063-068>070-241500-
   Twin Cities Metro

CITY           SKY/WX    TMP DP  RH WIND       PRES   REMARKS
TWIN CITIES    CLOUDY    50  43  77 N9        29.79S
ST PAUL        CLOUDY    50  45  83 N7        29.79S
CRYSTAL        CLOUDY    50  41  71 NE10      29.78F
BLAINE         CLOUDY    52  45  76 N9        29.79S
LAKEVILLE      CLOUDY    48  45  87 N6        29.78S
EDEN PRAIRIE   CLOUDY    51  43  74 NE8       29.78S
SOUTH ST PAUL  CLOUDY    51  44  77 N8        29.78S
LAKE ELMO      CLOUDY    52  45  76 N6        29.79S
$$
MNZ001>005-007-008-013>017-022>024-027-028-241500-
   Northwest Minnesota

CITY           SKY/WX    TMP DP  RH WIND       PRES   REMARKS
BEMIDJI        SUNNY     52  42  66 E6        29.84F
HALLOCK        SUNNY     57  45  62 S6        29.81F
ROSEAU         SUNNY     57  48  72 SE5       29.84F
WARROAD        SUNNY     55  48  76 E5        29.85S
CROOKSTON      SUNNY     55  45  67 SE8       29.83F
FOSSTON        SUNNY     52  50  93 E5        29.84F
DETROIT LAKES  SUNNY     52  43  71 E3        29.83F
MOORHEAD       SUNNY     52  45  76 CALM      29.84S
PARK RAPIDS    SUNNY     54  40  59 SE6       29.83S
MAHNOMEN       FAIR      52  43  71 E8        29.84S
$$
MNZ006-009>011-018-025>026-241500-
   North Central Minnesota

CITY           SKY/WX    TMP DP  RH WIND       PRES   REMARKS
BAUDETTE       SUNNY     55  47  74 CALM      29.85F
FLAG ISLAND    SUNNY     52  45  76 SE6       29.83F
INTL FALLS     SUNNY     54  39  57 VRB5      29.86S
WASKISH        SUNNY     54  45  71 CALM      29.85F
BIG FORK       SUNNY     55  43  62 E3        29.85S
LONGVILLE      SUNNY     54  43  66 CALM      29.83S
GRAND RAPIDS   SUNNY     53  42  66 VRB6      29.85F
CRANE LAKE     SUNNY     50  45  81 CALM      29.88S
ORR            SUNNY     54  39  58 CALM      29.83F
COOK           SUNNY     54  43  66 E3        29.85F
WALKER         FAIR      51  43  76 E3        29.84S
$$
MNZ012-019>021-037-241500-
   Northeast Minnesota

CITY           SKY/WX    TMP DP  RH WIND       PRES   REMARKS
DULUTH         CLOUDY    52  44  74 E14       29.83R
ELY            SUNNY     52  41  66 N3        29.85S
HIBBING        SUNNY     52  41  66 E10       29.84S
EVELETH        PTSUNNY   55  40  56 E9        29.86S
DULUTH HARBOR  CLOUDY    46  43  87 E7        29.85S
TWO HARBORS    PTSUNNY   54  46  76 E13       29.82S
SILVER BAY     MOSUNNY   54  45  71 E6        29.82S
GRAND MARAIS     N/A     48  40  73 NE5       29.85R
G MARAIS ARPRT MOSUNNY   52  37  58 NE10      29.85S
$$
MNZ029>031-032-039>041-046>048-054>057-064-241500-
   West Central Minnesota

CITY           SKY/WX    TMP DP  RH WIND       PRES   REMARKS
FERGUS FALLS   SUNNY     54  45  71 SE6       29.82S
WHEATON        CLOUDY    50  45  81 CALM      29.85S
MORRIS         CLOUDY    52  48  87 CALM      29.81F
ALEXANDRIA     CLOUDY    51  45  79 E12       29.82F
ELBOW LAKE     CLOUDY    51  47  86 SE6       29.83S
WADENA         MOSUNNY   52  45  76 E3        29.82F
GLENWOOD       PTSUNNY   52  46  82 NE9       29.82S
BENSON         CLOUDY    52  46  82 CALM      29.83S
ORTONVILLE     CLOUDY    50  46  87 CALM      29.82S
MADISON        CLOUDY    54  52  94 NE6       29.82S
WILLMAR        FAIR      54  46  76 NE13      29.81F
$$
MNZ033>034-036-042>043-049>051-058-059-241500-
   Central Minnesota

CITY           SKY/WX    TMP DP  RH WIND       PRES   REMARKS
ST CLOUD       CLOUDY    51  45  79 NE7       29.80F
SAUK CENTRE    CLOUDY    51  45  79 NE8       29.82S
PAYNESVILLE    PTSUNNY   52  50  92 NE7       29.81F
AITKIN         MOSUNNY   50  45  81 NE7       29.81F
PINE RIVER     MOSUNNY   54  45  71 E6        29.86S
BRAINERD       MOSUNNY   53  46  77 NE9       29.82F
STAPLES        PTSUNNY   54  43  66 E3        29.82S
LONG PRAIRIE   PTSUNNY   52  43  71 N9        29.82F
LITTLE FALLS   PTSUNNY   52  43  71 E5        29.82S
LITCHFIELD     MOSUNNY   54  48  82 NE9       29.80F
BUFFALO        CLOUDY    50  43  78 N9        29.81S
MAPLE LAKE     CLOUDY    51  46  81 NE9       29.81F
HUTCHINSON     MOSUNNY   54  47  76 N13       29.80F
$$
MNZ037-044-045-052-053-241500-
   East Central Minnesota

CITY           SKY/WX    TMP DP  RH WIND       PRES   REMARKS
PRINCETON      CLOUDY    52  46  82 NE8       29.81S
MORA           CLOUDY    50  45  81 NE6       29.83S
CAMBRIDGE      CLOUDY    54  43  66 NE8       29.78S
RUSH CITY      CLOUDY    50  44  82 NE8       29.81S
MOOSE LAKE     CLOUDY    50  41  71 NE9       29.82R
HINCKLEY       CLOUDY    52  45  76 NE6       29.81S
CLOQUET        CLOUDY    52  41  66 NE9       29.83R
MCGREGOR       MOSUNNY   50  46  87 NE7       29.84S
$$
MNZ071>073-080-081-089-090-097-098-241500-
   Southwest Minnesota

CITY           SKY/WX    TMP DP  RH WIND       PRES   REMARKS
MONTEVIDEO     CLOUDY    52  52 100 E3        29.81F
CANBY          CLOUDY    50  48  90 CALM      29.83F
MARSHALL       CLOUDY    49  46  90 N8        29.82S
REDWOOD FALLS  PTSUNNY   53  44  71 NE8       29.79F
OLIVIA         SUNNY     54  46  76 NE10      29.79F
PIPESTONE      CLOUDY    50  43  76 NE8       29.80F
WINDOM         PTSUNNY   48  46  93 N7        29.79S
WORTHINGTON    CLOUDY    48  44  86 N12       29.80F
JACKSON        CLOUDY    46  45  93 N9        29.79S
TRACY          PTSUNNY   49  48  93 N7        29.81S
SLAYTON        CLOUDY    47  44  91 NE7       29.81S
$$
MNZ065>067-074>077-082>085-091>093-241500-
   South Central Minnesota

CITY           SKY/WX    TMP DP  RH WIND       PRES   REMARKS
MANKATO        CLOUDY    47  44  90 N13       29.79R
NEW ULM        CLOUDY    50  45  81 NE10      29.79S
ST JAMES       CLOUDY    50  46  87 N7        29.79F
FAIRMONT       CLOUDY    47  45  93 NE9       29.78R
GLENCOE        MOSUNNY   52  47  83 NE7       29.79S
FARIBAULT      CLOUDY    48  45  87 N7        29.78S
OWATONNA       CLOUDY    46  45  93 N7        29.77S
WASECA         CLOUDY    46  43  87 N8        29.78S
ALBERT LEA     CLOUDY    50  48  93 N10       29.75S
$$
MNZ078>079-086>088-094>096-241500-
   Southeast Minnesota

CITY           SKY/WX    TMP DP  RH WIND       PRES   REMARKS
ROCHESTER      CLOUDY    50  47  89 N13       29.75R
RED WING       CLOUDY    52  43  71 NE3       29.76S
STANTON        CLOUDY    49  45  84 NE6       29.76S
DODGE CENTER   CLOUDY    48  45  87 N9        29.75S
WINONA         CLOUDY    54  46  76 NE8       29.73F
AUSTIN         CLOUDY    48  45  87 N7        29.74S
PRESTON        CLOUDY    49  46  87 N9        29.73S
$$
ABBREVIATIONS USED IN REMARKS
   TC - TEMPERATURES IN CELSIUS
  WCI - WIND CHILL INDEX
   HX - HEAT INDEX
  VSB - VISIBILITY
$$




USA.gov is the U.S. government's official web portal to all federal, state and local government web resources and services.